Flag for U.S.A. Weather past 2 weeks in Visalia, California, U.S.A.

Now
75 °F

Sunny.


Feels Like: 78 °F
Forecast: 73 / 99 °F
Wind: No wind

Location: Visalia Municipal

Current Time: Jul 30, 2014 at 8:15:11 AM

Latest Report: Jul 30, 2014 at 7:35 AM


Visibility: 9 mi

Pressure: 29.95 "Hg

Humidity: 57%

Dew point: 59 °F

Location of VisaliaLocation

Historic Weather in Visalia — Graph

°F

Visalia temperature yesterday

Maximum temperature yesterday: 100 °F (at 2:55 PM)
Minimum temperature yesterday: 66 °F (at 6:15 AM)
Average temperature yesterday: 85 °F

Past Weeks' High & Low Weather Summary

 TemperatureHumidityPressure
High102 °F (Jul 26, 3:15 PM)78% (Jul 21, 5:55 AM)30.13 "Hg (Jul 21, 5:55 AM)
Low63 °F (Jul 18, 5:55 AM)17% (Jul 26, 7:15 PM)29.75 "Hg (Jul 25, 6:15 PM)
Average82 °F49%29.91 "Hg
* Reported Jul 15 7:15 AM — Jul 30 7:15 AM, Visalia, Weather by CustomWeather, © 2014

Note: Actual official high and low records may vary slightly from our data, if they occured in-between our weather recording intervals... More about our weather records

Advertising

Visalia weather history for previous 24 hours

 ConditionsComfort  
Time TempWeatherWind HumidityBarometerVisibility
7:15 AM
Jul 30
73 °FSunny.3 mph61%29.95 "Hg10 mi
6:55 AM73 °FClear.No wind61%29.94 "Hg10 mi
6:35 AM75 °FClear.5 mph57%29.93 "Hg10 mi
6:15 AM73 °FClear.5 mph65%29.93 "Hg10 mi
5:55 AM75 °FClear.3 mph57%29.93 "Hg10 mi
5:35 AM75 °FClear.3 mph61%29.93 "Hg10 mi
5:15 AM77 °FClear.No wind54%29.92 "Hg10 mi
4:55 AM75 °FClear.3 mph57%29.92 "Hg10 mi
4:35 AM79 °FClear.No wind48%29.92 "Hg10 mi
4:15 AM81 °FClear.No wind45%29.92 "Hg10 mi
3:55 AM81 °FClear.No wind45%29.91 "Hg10 mi
3:35 AM81 °FClear.6 mph45%29.91 "Hg10 mi
3:15 AM81 °FClear.7 mph45%29.91 "Hg10 mi
2:55 AM81 °FClear.7 mph45%29.91 "Hg10 mi
2:35 AM79 °FClear.5 mph51%29.90 "Hg10 mi
2:15 AM81 °FClear.7 mph48%29.90 "Hg10 mi
1:55 AM81 °FClear.7 mph48%29.90 "Hg10 mi
1:35 AM82 °FClear.6 mph45%29.90 "Hg10 mi
1:15 AM82 °FClear.5 mph45%29.91 "Hg10 mi
12:55 AM82 °FClear.5 mph45%29.91 "Hg10 mi
12:35 AM82 °FClear.6 mph45%29.91 "Hg10 mi
12:15 AM84 °FClear.7 mph43%29.91 "Hg10 mi
11:55 PM
Jul 29
84 °FClear.8 mph43%29.92 "Hg10 mi
11:35 PM86 °FClear.10 mph40%29.91 "Hg10 mi
11:15 PM88 °FClear.10 mph38%29.92 "Hg10 mi
10:55 PM88 °FClear.12 mph38%29.92 "Hg10 mi
10:35 PM88 °FClear.10 mph38%29.92 "Hg10 mi
10:15 PM88 °FClear.10 mph40%29.92 "Hg10 mi
9:55 PM88 °FClear.9 mph38%29.91 "Hg10 mi
9:35 PM88 °FClear.8 mph40%29.91 "Hg10 mi
9:15 PM88 °FClear.6 mph40%29.91 "Hg10 mi
8:55 PM90 °FSunny.7 mph33%29.91 "Hg10 mi
8:35 PM91 °FSunny.8 mph32%29.90 "Hg10 mi
7:55 PM93 °FSunny.7 mph30%29.89 "Hg10 mi
7:35 PM95 °FSunny.7 mph28%29.89 "Hg10 mi
7:15 PM99 °FSunny.7 mph18%29.88 "Hg10 mi
6:55 PM99 °FSunny.8 mph18%29.88 "Hg10 mi
6:35 PM100 °FSunny.9 mph17%29.88 "Hg10 mi
6:15 PM100 °FSunny.7 mph17%29.88 "Hg10 mi
5:55 PM100 °FSunny.7 mph17%29.89 "Hg10 mi
5:35 PM100 °FSunny.3 mph17%29.89 "Hg10 mi
4:55 PM100 °FSunny.7 mph20%29.90 "Hg10 mi
4:35 PM100 °FSunny.9 mph21%29.90 "Hg2 mi
4:15 PM99 °FSunny.7 mph22%29.90 "Hg10 mi
3:55 PM100 °FSunny.8 mph20%29.91 "Hg10 mi
3:35 PM100 °FSunny.7 mph20%29.92 "Hg10 mi
3:15 PM100 °FSunny.9 mph20%29.93 "Hg10 mi
2:55 PM100 °FSunny.6 mph17%29.94 "Hg10 mi
2:35 PM99 °FSunny.6 mph21%29.95 "Hg10 mi
2:15 PM97 °FSunny.6 mph22%29.95 "Hg10 mi
1:55 PM97 °FSunny.3 mph25%29.95 "Hg10 mi
1:35 PM97 °FSunny.5 mph25%29.97 "Hg10 mi
1:15 PM95 °FSunny.6 mph25%29.97 "Hg10 mi
12:55 PM93 °FSunny.8 mph28%29.98 "Hg10 mi
12:35 PM93 °FSunny.7 mph32%29.98 "Hg10 mi
12:15 PM91 °FSunny.9 mph34%29.98 "Hg10 mi
11:55 AM90 °FSunny.6 mph33%29.99 "Hg10 mi
11:35 AM90 °FSunny.7 mph38%30.00 "Hg8 mi
11:15 AM88 °FSunny.6 mph35%30.01 "Hg10 mi
10:55 AM86 °FSunny.5 mph40%30.02 "Hg10 mi
10:35 AM84 °FSunny.No wind45%30.02 "Hg10 mi
10:15 AM82 °FSunny.5 mph45%30.02 "Hg10 mi
9:55 AM82 °FSunny.6 mph42%30.03 "Hg10 mi
9:35 AM82 °FSunny.3 mph45%30.03 "Hg10 mi
9:15 AM81 °FSunny.No wind45%30.03 "Hg9 mi
8:55 AM81 °FSunny.No wind42%30.03 "Hg10 mi
8:35 AM79 °FSunny.No wind45%30.03 "Hg10 mi
8:15 AM79 °FSunny.3 mph48%30.02 "Hg10 mi
Weather by CustomWeather, © 2014

See weather overviewHow to use our weather pages